This is the latest recevied weather packets stored in our database for station/object WX6HNX-14. If no packets are shown the sender has not sent any weather packets the latest 1 day(s).
| Time | Temp. | Humidity | Pressure | Rain* | Wind** | Luminosity | Snow |
|---|---|---|---|---|---|---|---|
| 1778065812 | 12.78° C | 79% | 1019.7 hPa | 0 mm | - | - | - |
| 1778065512 | 12.78° C | 79% | 1019.7 hPa | 0 mm | - | - | - |
| 1778064872 | 12.78° C | 79% | 1019.7 hPa | 0 mm | - | - | - |
| 1778064503 | 12.78° C | 79% | 1019.5 hPa | 0 mm | - | - | - |
| 1778064202 | 12.22° C | 79% | 1019.6 hPa | 0 mm | - | - | - |
| 1778063902 | 12.78° C | 79% | 1019.5 hPa | 0 mm | - | - | - |
| 1778063002 | 11.67° C | 81% | 1019.4 hPa | 0 mm | - | - | - |
| 1778062402 | 11.11° C | 81% | 1019.3 hPa | 0 mm | - | - | - |
| 1778061802 | 11.11° C | 80% | 1019.2 hPa | 0 mm | - | - | - |
| 1778061055 | 11.11° C | 81% | 1019.2 hPa | 0 mm | - | - | - |
| 1778060754 | 10.56° C | 82% | 1019 hPa | 0 mm | - | - | - |
| 1778059554 | 11.67° C | 79% | 1018.9 hPa | 0 mm | - | - | - |
| 1778058654 | 11.67° C | 82% | 1018.9 hPa | 0 mm | - | - | - |
| 1778058354 | 11.11° C | 82% | 1018.9 hPa | 0 mm | - | - | - |
| 1778058054 | 11.11° C | 81% | 1018.9 hPa | 0 mm | - | - | - |
| 1778057754 | 11.11° C | 82% | 1018.9 hPa | 0 mm | - | - | - |
| 1778057454 | 10.56° C | 81% | 1018.9 hPa | 0 mm | - | - | - |
| 1778056584 | 11.11° C | 80% | 1018.8 hPa | 0 mm | - | - | - |
| 1778055984 | 11.67° C | 81% | 1018.7 hPa | 0 mm | - | - | - |
| 1778055684 | 11.67° C | 80% | 1018.8 hPa | 0 mm | - | - | - |
| 1778055385 | 11.67° C | 80% | 1018.7 hPa | 0 mm | - | - | - |
| 1778055084 | 11.67° C | 80% | 1018.7 hPa | 0 mm | - | - | - |
| 1778054484 | 11.67° C | 81% | 1018.7 hPa | 0 mm | - | - | - |
| 1778054184 | 11.67° C | 80% | 1018.7 hPa | 0 mm | - | - | - |
| 1778053885 | 11.67° C | 80% | 1018.7 hPa | 0 mm | - | - | - |
* Rain latest hour (hover to see other rain measurements)
** Current wind speed in m/s (hover to see current wind gust speed)